Wind_Speed
9 7 6 5 5 4 4 3 4 4 4 4 4 4 4 5 7 8 9 11 13 13 13 14 14 15 15 16 15 15 14 13 11 10 9 10 11 11 12 14 14 13 12 11 11 11 11 11 10 9 9 8 6 5 5 5 5 4 4 4 4 4 3 4 5 5 6 7 7 7 6 6 6 7 7 7 7 7 8 9 9 9 9 9 8 8 10 11
11 9 8 7 6 5 5 4 4 4 4 4 4 4 4 5 7 8 9 11 12 12 12 13 13 14 15 15 15 14 14 13 11 9 9 9 10 11 13 14 14 13 13 14 13 12 12 11 10 9 8 6 5 4 3 4 3 3 3 3 4 3 3 4 4 4 4 5 5 5 6 5 5 5 5 6 6 7 8 8 8 7 8 9 9 9 10 12
13 12 10 9 7 6 6 5 4 4 4 3 4 4 4 5 6 7 8 10 11 11 11 12 13 14 15 15 14 14 13 12 11 9 8 9 10 11 13 13 13 13 13 14 14 13 13 11 10 10 8 7 5 4 3 3 3 3 3 3 3 3 3 4 4 4 4 4 4 5 5 5 4 3 3 4 4 5 6 7 6 6 6 7 9 11 11 13
16 14 13 11 9 8 6 6 5 4 4 3 3 4 4 5 6 7 8 9 11 10 10 11 12 13 14 14 14 13 13 12 10 8 8 8 9 11 12 12 13 13 13 14 14 14 13 12 12 11 10 8 7 6 4 3 3 3 3 3 3 4 3 4 4 4 4 4 4 5 6 5 4 4 3 3 3 4 5 5 5 5 5 6 7 10 11 12
19 17 15 14 12 10 8 7 6 5 4 4 3 4 4 5 5 6 7 8 10 9 9 10 11 12 13 13 13 13 12 11 10 8 8 7 9 11 12 12 12 13 14 15 15 15 14 14 13 12 11 9 8 7 5 4 2 2 3 3 3 4 3 4 5 4 4 4 4 5 5 5 5 4 3 2 3 4 5 4 4 3 4 6 6 8 10 11
21 19 18 16 14 12 10 9 7 6 5 4 4 4 5 5 5 6 6 7 9 8 7 9 10 11 12 12 12 12 12 11 9 8 7 7 8 10 11 11 12 13 15 16 17 16 15 15 14 12 11 9 8 6 5 4 3 2 2 2 3 3 2 2 3 3 3 3 2 3 4 4 4 3 2 2 3 4 4 4 3 2 3 6 6 7 10 11
23 22 20 19 17 15 13 11 9 7 6 5 4 4 5 5 5 5 6 7 8 6 6 8 9 10 11 11 11 12 12 11 9 8 7 7 7 8 9 10 11 12 14 16 17 17 16 15 13 12 10 9 7 6 5 4 3 2 3 3 3 2 1 1 1 1 1 1 1 1 3 4 3 2 2 3 3 4 4 3 3 2 3 6 6 7 9 11
25 24 23 21 19 17 15 13 11 9 7 6 5 5 5 5 5 5 5 6 7 5 5 6 8 9 10 10 10 11 11 10 10 9 8 7 7 7 8 8 9 10 12 14 15 16 15 14 13 11 10 8 7 6 5 4 3 3 3 3 3 3 3 2 2 1 1 1 0 1 1 2 2 2 2 3 4 4 4 4 3 3 4 6 8 7 8 9
26 26 25 24 22 19 17 16 14 12 9 7 6 5 5 5 5 5 5 5 6 5 4 5 6 8 9 9 9 10 10 10 10 9 8 8 7 7 8 8 8 8 9 11 13 14 14 13 12 11 9 8 6 5 4 4 4 3 3 2 3 3 4 3 3 2 2 2 2 1 0 1 1 2 3 3 4 4 5 5 4 4 4 5 8 8 8 9
27 26 26 26 24 22 19 17 16 14 12 9 7 6 6 6 5 5 5 5 5 4 3 4 5 6 7 8 8 9 9 10 10 9 8 8 8 8 8 8 8 8 8 9 11 12 13 12 10 9 8 7 7 6 5 4 4 4 3 2 2 2 3 3 3 2 2 2 2 2 1 1 1 1 2 3 4 5 6 5 4 4 3 4 6 7 7 8
28 27 27 27 26 24 22 19 17 16 14 11 9 7 7 6 6 5 5 4 5 4 2 3 4 5 6 7 7 8 8 9 9 9 9 8 8 8 8 9 9 9 8 8 9 10 11 11 10 8 7 7 7 6 6 5 4 4 3 2 2 3 3 3 3 3 2 2 3 3 2 2 2 2 2 2 3 5 6 6 6 5 5 4 5 6 6 7
28 27 27 28 28 26 24 21 19 17 15 13 11 9 7 7 7 6 5 4 4 4 2 2 3 4 5 5 6 7 7 8 9 9 9 8 8 8 9 9 10 10 9 8 8 9 10 11 10 8 7 7 6 6 5 4 4 4 4 5 6 6 5 5 4 3 3 3 3 4 4 3 3 3 3 3 3 4 5 6 7 7 7 6 6 6 7 7
29 28 27 28 28 28 26 23 21 18 17 15 13 11 9 8 7 7 6 5 4 4 3 1 2 4 4 4 5 5 6 7 8 8 8 8 8 8 8 9 10 10 10 9 8 8 9 10 11 9 8 7 6 5 4 4 4 5 7 8 8 7 7 6 6 5 4 4 3 5 6 4 3 4 4 4 4 4 5 6 7 7 8 8 8 8 8 7
30 29 27 27 28 29 28 26 23 20 18 16 15 13 11 9 8 7 6 5 4 4 4 3 1 3 3 3 3 4 5 6 7 7 8 8 7 8 8 8 8 9 9 9 8 8 8 9 10 9 8 7 6 6 5 5 6 7 8 8 8 8 8 8 8 7 7 6 5 6 7 5 3 4 5 5 5 5 5 6 6 7 7 8 9 9 9 8
31 29 28 27 28 29 29 28 25 22 20 18 16 14 12 11 10 9 7 6 5 5 5 4 2 2 2 2 2 2 3 5 6 7 7 7 7 7 7 7 7 8 8 8 8 9 9 8 9 9 7 7 6 7 7 7 8 8 8 7 8 9 9 10 9 8 7 7 7 7 7 5 4 4 4 5 6 6 7 7 7 7 7 8 8 9 9 8
33 31 29 28 28 28 30 29 27 24 22 19 18 16 14 13 11 10 8 7 6 6 6 5 3 2 2 2 0 1 2 3 5 6 6 7 7 7 7 7 7 7 7 8 9 9 10 9 9 9 7 7 7 9 9 8 7 7 7 7 8 9 10 10 8 8 7 7 7 7 7 6 6 6 5 5 5 6 6 7 8 8 8 9 9 8 7 7
32 31 30 28 28 28 29 30 29 26 24 21 19 18 16 15 13 11 10 8 8 7 6 7 5 3 2 2 1 1 0 2 3 4 5 6 7 7 7 8 7 7 8 9 9 10 10 10 9 9 9 8 8 9 9 6 5 6 7 8 8 8 9 8 6 7 8 7 8 7 7 7 8 9 8 8 8 8 8 8 8 8 8 9 10 9 7 7
31 31 30 29 29 29 29 30 30 28 25 23 21 19 18 16 15 13 11 10 9 8 7 8 7 5 3 2 2 2 2 1 2 3 4 5 6 6 7 7 7 7 8 9 10 9 9 9 9 9 8 8 8 9 8 7 7 8 9 10 10 9 8 7 6 7 7 8 9 8 7 8 9 10 10 10 10 11 11 11 10 9 8 8 9 9 8 8
31 30 29 29 30 29 29 30 31 29 27 24 22 21 19 18 16 14 12 11 10 8 8 8 9 7 5 3 2 2 3 3 3 4 5 5 5 6 7 7 7 7 8 9 9 9 8 8 8 7 6 7 7 8 9 9 10 10 10 11 12 11 9 7 7 7 8 9 9 9 8 7 9 10 10 10 10 11 12 12 11 11 10 9 9 8 8 9
30 30 29 29 30 30 29 29 31 30 28 26 24 22 21 19 18 15 13 12 10 9 9 9 9 8 6 5 3 3 4 4 4 5 5 5 5 6 7 8 8 7 7 8 8 8 8 7 7 6 6 7 8 9 10 10 10 11 11 11 12 11 10 9 9 8 8 8 8 10 9 8 9 11 11 10 10 11 11 11 11 11 11 10 9 8 7 8
28 29 29 28 29 31 30 30 31 31 29 28 26 24 22 20 19 17 15 14 12 10 10 10 10 10 8 6 4 4 5 5 6 6 6 6 6 7 7 8 8 7 7 7 8 8 7 7 7 8 8 9 9 9 10 10 11 11 11 11 11 11 10 10 10 9 9 7 8 10 10 10 10 11 11 10 10 10 10 11 11 11 12 12 11 10 8 7
27 28 28 28 28 30 31 30 30 31 30 29 28 26 23 21 19 18 16 15 13 11 11 10 11 11 9 7 5 5 6 7 7 8 8 8 7 7 7 8 9 8 8 8 8 8 7 7 8 9 9 9 9 9 9 10 11 11 11 11 10 9 10 10 10 10 9 7 7 9 9 9 10 11 11 10 10 10 11 11 11 11 11 13 13 13 11 9
26 26 27 28 28 28 30 30 30 30 31 30 29 27 25 22 20 19 17 16 14 12 11 11 12 12 11 9 7 7 7 8 8 9 9 8 8 8 8 9 9 10 9 9 9 9 9 8 8 8 8 8 8 8 8 9 9 10 10 11 9 8 9 9 8 9 9 8 7 7 8 8 10 10 10 10 10 11 12 12 12 12 12 12 13 14 14 13
25 25 26 27 28 27 28 29 29 30 31 31 30 29 26 23 21 20 19 17 15 13 12 12 12 13 12 10 9 8 8 9 9 10 10 10 9 9 10 10 11 11 11 10 9 9 9 9 8 8 8 7 7 7 8 9 8 7 8 10 9 8 9 8 8 8 8 8 7 6 7 8 9 9 9 10 10 11 12 12 12 13 13 13 13 14 15 15
22 24 24 26 27 27 27 28 28 29 31 31 31 30 27 24 22 21 20 18 17 15 13 12 13 14 14 12 10 9 9 10 10 11 11 11 11 11 11 11 11 12 12 10 9 9 10 8 8 7 7 6 6 6 7 8 8 7 7 8 9 8 8 8 8 7 7 6 5 6 5 4 7 8 8 10 11 12 12 12 12 13 14 14 14 13 14 15
21 22 23 24 26 27 27 27 27 29 30 31 32 31 28 25 23 22 21 20 18 16 14 13 13 14 15 13 11 11 11 11 11 12 12 11 11 11 12 12 11 11 11 11 9 9 9 8 7 7 6 5 5 5 5 7 7 6 5 6 7 7 8 8 7 7 6 4 3 6 5 1 5 6 7 10 11 12 13 13 13 12 13 14 15 15 15 15
19 20 22 23 25 27 27 27 27 29 30 31 32 31 28 26 25 23 22 21 19 17 16 15 14 14 15 15 13 12 12 12 13 13 12 12 11 11 12 12 10 10 11 11 10 10 9 8 7 7 6 5 5 5 5 5 5 4 4 4 5 6 7 7 6 6 5 4 4 5 4 1 5 6 7 9 10 12 12 13 13 13 13 13 14 15 15 16
18 19 21 22 24 26 27 27 27 28 29 31 31 31 29 27 26 24 23 22 20 18 17 15 14 14 15 15 14 13 13 13 14 14 14 13 13 12 12 11 10 10 11 12 11 10 10 9 8 7 5 5 5 6 6 6 6 5 4 3 2 4 4 5 5 5 4 4 4 3 3 3 5 7 7 7 9 12 13 13 14 14 14 14 14 15 16 16
17 18 19 21 22 25 26 26 27 28 29 30 31 30 29 27 27 25 24 23 20 19 18 17 15 15 15 15 15 14 14 14 14 15 15 14 13 12 11 11 10 9 11 11 10 10 9 8 7 6 6 6 6 6 6 6 6 5 4 2 1 1 2 2 3 3 3 2 2 2 2 3 3 7 8 8 9 12 13 14 15 15 15 15 15 15 16 17
16 17 18 19 21 23 25 26 27 27 28 29 30 30 29 28 27 26 25 24 21 20 19 18 16 15 15 15 15 15 14 14 14 14 15 15 14 14 12 11 10 9 10 10 9 9 8 8 7 7 7 8 7 6 5 5 5 5 3 2 2 2 2 2 2 3 3 2 2 2 2 2 3 8 10 10 10 12 13 14 15 16 16 17 17 17 16 17
15 16 17 18 20 22 24 26 26 27 28 28 29 30 29 28 28 27 26 24 22 20 19 18 17 16 16 16 16 15 14 14 15 15 15 15 15 14 13 12 11 9 8 9 9 8 8 8 8 9 9 9 9 7 6 6 5 4 2 2 2 3 4 4 4 4 4 4 5 4 4 3 4 8 10 10 11 12 13 14 16 17 18 18 18 19 18 18
15 15 16 17 19 21 23 25 26 27 27 28 29 30 29 29 28 28 26 24 23 22 20 19 17 17 17 18 18 16 15 15 16 16 15 15 15 14 14 13 11 10 9 9 9 9 9 9 9 10 10 10 10 9 8 7 6 5 3 3 4 5 6 6 6 6 7 8 7 7 7 5 6 10 11 11 12 13 13 14 16 18 18 19 20 20 20 20
15 15 15 16 18 20 23 24 25 26 27 28 29 30 29 29 29 28 26 26 26 23 21 20 19 18 18 19 19 18 17 16 17 17 16 15 15 14 13 12 11 11 10 10 10 10 10 10 10 11 11 11 10 10 11 9 7 6 5 5 6 7 8 7 8 8 9 10 9 9 10 8 10 12 12 12 14 14 15 15 16 18 19 20 21 21 22 22
14 14 14 15 17 19 22 23 24 25 26 28 29 30 30 29 29 28 27 27 26 24 23 22 20 18 18 19 19 19 18 18 18 18 18 16 15 14 13 12 12 12 11 10 10 11 10 11 12 12 12 12 12 12 12 11 10 8 7 8 8 9 9 8 9 9 9 13 12 10 11 10 12 14 13 14 16 15 16 17 17 18 19 20 22 22 23 23
14 14 13 14 16 19 21 22 23 24 26 28 29 30 30 30 30 29 29 28 26 25 24 22 20 19 18 19 20 20 20 19 19 19 18 17 16 15 14 14 14 13 12 11 11 11 12 14 14 13 14 14 13 13 12 12 13 10 9 10 10 10 11 10 11 11 11 14 14 12 12 13 14 16 16 16 17 17 17 18 18 19 20 21 22 23 24 24
14 13 13 14 15 17 19 21 22 24 26 28 29 30 31 32 32 31 30 28 26 25 24 23 21 19 19 20 20 21 21 20 19 18 18 17 17 16 16 16 15 15 14 13 13 12 13 16 16 15 16 16 14 14 13 12 14 11 11 12 12 12 13 12 12 12 12 14 15 13 13 15 16 17 17 17 19 18 18 19 20 21 22 22 23 24 25 26
14 13 13 13 14 16 18 20 22 24 26 28 29 31 32 33 32 30 28 27 26 25 23 22 21 20 20 19 20 20 20 20 19 18 18 17 17 17 17 17 17 16 15 14 14 14 13 16 17 17 18 18 16 16 15 14 14 14 14 14 13 14 14 13 14 15 15 15 17 15 13 15 18 19 18 19 20 19 19 21 22 22 23 23 24 25 26 27
14 13 13 13 13 15 17 19 22 24 26 28 29 31 33 32 30 29 27 26 26 24 23 23 21 20 19 19 19 19 19 19 19 18 18 17 17 17 17 17 16 16 15 15 15 14 14 15 17 18 19 19 18 16 16 16 15 15 16 14 14 15 15 16 15 16 17 17 18 19 17 16 18 19 20 21 21 21 21 22 23 24 25 25 26 26 27 27
14 14 13 13 13 14 16 19 22 24 26 28 30 31 32 31 30 28 27 26 25 25 24 23 22 20 19 19 19 18 17 18 18 17 17 17 17 16 16 16 16 15 15 15 15 15 14 15 17 19 19 19 19 17 17 17 16 16 16 16 16 15 16 18 17 16 18 19 19 20 20 20 20 19 21 24 23 23 23 23 24 25 26 27 27 27 28 28
14 15 14 13 14 15 17 19 21 24 26 28 30 31 31 30 29 28 27 26 26 25 24 23 21 20 20 19 18 18 17 17 16 17 18 17 16 16 16 16 16 15 15 15 15 16 15 16 18 20 19 20 20 18 17 18 18 17 18 17 17 17 17 19 20 19 19 20 20 20 20 23 24 21 21 25 25 24 24 24 26 27 27 28 28 29 29 30
13 15 15 14 15 16 17 20 22 23 25 27 29 30 30 29 28 27 26 26 26 25 24 23 22 21 20 19 19 18 17 16 17 17 17 17 17 18 17 17 17 16 17 17 17 17 17 17 19 21 20 21 22 20 19 20 20 19 20 19 19 19 20 20 21 21 20 20 21 22 22 24 26 24 24 26 25 25 26 26 27 27 27 28 29 30 31 32
12 16 16 16 16 17 18 20 22 23 25 27 28 28 28 28 28 27 27 26 26 25 24 24 23 22 21 21 20 19 18 17 18 18 17 18 18 18 17 17 18 17 18 20 20 19 19 19 20 22 22 22 22 22 22 22 21 21 21 21 21 21 22 22 22 22 23 22 22 23 25 26 27 26 26 27 26 26 27 27 28 28 28 28 29 30 32 33
12 15 17 18 18 18 19 20 22 24 25 26 26 26 27 27 27 27 27 27 27 27 26 25 25 24 23 22 20 20 19 19 19 19 19 19 19 18 18 18 18 18 19 21 22 22 22 21 22 23 24 24 24 24 25 23 23 23 23 23 23 23 23 23 23 24 24 25 24 24 26 28 29 27 26 27 27 27 28 28 28 29 29 30 30 32 33 33
12 14 17 19 20 20 20 21 22 24 25 25 25 26 26 27 27 27 27 27 28 28 28 27 26 25 24 22 21 20 20 20 20 20 21 21 21 21 21 20 20 20 21 22 23 23 23 23 23 23 24 25 25 26 26 24 23 24 24 24 24 25 25 24 25 25 25 26 26 25 26 29 30 28 27 28 28 28 28 29 29 30 30 31 32 33 33 34
13 13 16 20 21 22 22 22 22 23 24 25 26 26 27 27 27 27 27 28 28 28 28 28 27 26 24 23 22 22 21 21 22 22 22 23 23 22 22 21 22 23 23 23 23 24 24 24 24 24 24 24 24 26 26 25 24 24 25 24 24 25 25 25 26 26 27 27 27 26 27 30 31 29 29 29 28 28 29 29 30 31 31 32 33 34 34 35
15 14 15 19 23 24 23 23 24 24 25 26 26 26 27 27 27 27 28 28 28 28 28 27 27 26 25 24 24 23 23 22 22 22 22 22 22 21 21 21 22 23 24 24 24 24 25 26 26 25 25 25 25 26 26 25 25 25 25 25 25 25 25 25 25 26 27 28 28 28 28 30 31 30 29 29 29 29 30 30 31 31 32 32 33 34 35 36
17 15 15 18 22 25 25 25 25 25 25 26 27 27 27 28 28 28 28 28 28 28 28 28 28 27 26 26 25 25 24 23 22 22 22 21 21 21 21 22 22 23 25 25 25 26 26 27 28 27 26 27 26 26 26 25 25 26 26 26 26 26 25 25 26 26 27 28 29 30 30 29 31 32 30 30 30 30 31 31 31 32 32 33 34 35 36 36
17 17 16 17 20 24 26 27 27 26 26 27 27 28 28 28 28 29 29 29 29 29 29 29 29 28 28 27 26 26 26 24 23 22 22 22 22 23 23 24 24 25 25 25 26 26 26 28 29 28 28 28 27 26 25 25 25 25 26 26 26 26 26 26 27 27 28 28 29 31 31 30 32 33 31 31 31 32 32 32 32 32 33 33 34 35 36 36
18 18 18 17 19 22 26 28 28 28 28 28 28 29 29 29 29 30 30 30 30 30 29 29 29 29 28 28 28 27 27 25 25 24 24 24 25 25 26 26 26 26 26 26 26 25 26 28 29 28 29 28 26 25 24 24 25 25 26 26 27 27 27 28 28 29 29 30 31 31 31 32 32 33 32 31 31 32 32 32 32 33 33 34 34 35 36 36
18 19 19 18 18 20 24 28 29 29 29 29 29 30 30 31 31 31 31 31 31 31 30 29 29 29 28 28 27 27 27 27 26 26 25 26 26 27 28 28 28 27 27 27 27 26 26 28 27 27 28 28 26 25 24 24 25 25 26 27 27 28 28 29 29 30 30 31 31 32 32 33 32 32 32 32 32 32 32 33 33 33 34 34 35 36 36 36
19 19 20 20 19 19 22 26 29 30 30 30 31 31 32 32 32 32 32 32 32 31 30 29 29 29 29 28 28 28 27 26 25 25 26 26 28 28 28 28 27 27 26 26 27 26 26 26 26 25 26 27 25 24 25 25 25 26 27 27 28 28 29 29 30 30 31 31 32 32 32 32 32 32 32 32 32 33 33 33 33 33 34 35 36 37 37 36
20 20 20 21 21 20 20 23 27 30 31 32 32 32 33 33 33 33 34 34 33 32 32 30 31 31 30 29 29 28 26 25 24 25 26 27 28 27 27 26 26 25 25 25 25 25 25 25 26 25 25 26 25 24 25 26 26 27 28 28 28 29 29 30 30 30 30 31 31 31 32 32 32 32 32 32 33 33 33 33 33 34 35 36 37 37 36 35
Wind_Direction
241 241 244 253 267 283 299 314 327 333 340 350 352 350 352 346 352 2 5 7 7 9 17 21 21 21 22 23 22 23 23 23 26 32 41 51 62 67 65 67 67 71 83 99 114 127 137 146 149 147 145 143 135 135 144 138 136 139 150 148 130 138 141 135 136 137 144 147 145 147 154 161 159 158 156 153 153 154 156 162 170 174 182 185 183 189 190 189
242 242 243 247 255 270 285 300 317 328 334 343 347 344 342 343 350 359 4 5 6 10 18 21 22 22 23 24 23 24 24 25 26 33 47 60 72 77 73 73 74 77 82 91 103 114 122 124 121 120 123 125 121 120 130 128 138 150 169 168 144 156 169 158 148 140 148 150 152 154 156 159 162 165 163 159 152 152 158 161 167 174 183 189 191 195 198 196
243 243 243 246 250 258 272 287 303 318 326 335 341 336 332 339 346 356 1 3 5 11 19 21 22 23 25 26 25 24 26 26 27 34 51 66 78 81 76 77 81 86 91 95 102 108 110 108 104 104 106 107 105 105 110 119 144 165 180 193 175 181 193 183 167 155 159 162 164 164 164 169 178 188 181 170 159 155 160 161 167 180 187 194 199 199 196 197
242 243 243 245 248 252 260 274 289 304 317 326 332 328 323 332 343 352 359 1 4 12 19 21 22 24 26 27 25 25 26 27 28 35 52 66 77 79 76 78 84 89 95 100 103 105 106 106 105 103 102 99 96 95 99 111 140 170 183 202 202 198 204 201 193 179 174 179 177 170 172 182 187 201 208 193 189 180 172 168 169 186 196 196 202 205 201 198
243 243 243 244 247 249 253 262 276 290 305 314 320 320 315 323 337 348 356 358 2 12 18 20 22 24 27 28 26 26 28 30 30 38 54 65 76 82 84 85 91 97 102 105 107 107 106 105 103 99 95 91 89 90 89 93 116 149 171 193 196 203 217 216 214 208 195 190 186 174 171 180 183 194 206 192 206 205 188 181 180 195 214 206 199 205 209 204
244 243 243 244 245 248 250 255 264 277 292 300 308 311 308 315 331 343 351 355 360 11 17 20 23 24 28 29 26 26 30 33 33 39 54 67 78 89 95 96 100 107 111 111 109 106 102 98 95 92 90 89 87 85 79 78 87 105 131 164 175 191 215 222 227 227 216 211 200 175 160 168 179 191 209 198 209 221 210 206 211 226 243 227 208 204 212 210
246 244 243 244 244 246 248 250 256 265 277 287 295 302 302 308 321 336 345 350 356 8 17 19 23 25 28 30 27 26 30 31 32 38 51 66 79 89 98 102 104 110 114 112 108 103 98 95 92 90 88 86 85 82 76 75 79 85 100 122 132 134 138 151 225 231 213 211 198 159 153 167 179 196 229 227 219 224 224 227 227 228 253 244 227 214 216 216
248 246 244 243 243 244 245 247 250 256 266 274 282 291 296 302 310 327 337 344 351 2 15 17 22 25 27 31 27 26 31 30 30 36 49 62 74 83 92 100 105 109 111 113 110 105 101 98 95 93 90 86 86 84 82 85 87 84 85 100 108 108 100 87 70 50 47 58 105 144 163 181 194 208 230 241 236 230 228 234 234 233 246 246 238 227 221 219
251 248 245 243 243 243 243 245 247 249 256 264 270 279 287 294 300 314 326 336 344 354 11 12 19 24 26 30 28 26 31 31 29 35 48 60 70 79 85 93 103 108 109 113 115 111 107 104 101 99 94 94 96 95 99 102 95 90 85 93 101 101 96 86 76 60 49 46 42 42 56 221 220 225 235 246 254 251 247 246 244 248 250 239 236 233 227 224
252 249 246 243 243 243 242 242 244 245 249 255 261 269 277 285 290 300 314 325 335 342 360 8 13 22 25 29 31 28 31 32 31 35 46 59 71 81 86 86 93 101 103 110 116 116 114 111 109 105 100 103 107 112 118 118 112 109 104 102 99 92 94 88 81 71 53 40 25 11 12 359 313 287 272 257 260 265 264 264 258 253 251 235 234 236 234 231
252 251 247 244 242 242 242 240 241 242 244 248 252 259 265 275 281 286 300 312 323 328 338 358 5 17 22 27 32 32 34 35 35 38 45 58 71 82 90 90 91 96 101 105 110 114 115 116 115 111 112 115 116 119 123 128 128 119 111 102 85 73 86 89 82 69 49 28 14 1 355 356 348 344 338 304 278 274 274 275 273 262 251 242 240 244 244 242
251 250 248 245 242 241 241 239 238 238 240 243 245 251 256 263 272 276 284 296 311 313 304 337 354 9 19 23 31 36 38 39 39 42 49 59 70 82 91 93 95 99 102 101 100 103 108 115 117 116 120 124 124 123 127 133 113 95 88 76 64 59 67 79 76 64 53 31 24 23 14 354 336 334 329 318 300 286 282 278 275 271 262 254 249 251 254 255
251 250 248 245 242 240 240 239 236 235 237 239 240 244 248 253 262 266 270 280 295 297 277 282 339 355 12 19 28 38 42 44 45 47 54 62 70 80 87 91 95 98 101 101 98 101 107 115 120 121 124 126 126 122 119 109 85 73 72 71 72 72 69 76 77 71 66 51 49 58 45 14 326 317 310 305 304 295 291 286 282 280 274 266 259 255 258 263
250 249 247 245 242 239 239 238 235 233 234 236 237 239 241 245 252 257 260 267 276 279 262 250 307 338 357 11 24 38 43 49 51 53 61 69 75 81 86 89 92 96 100 104 105 107 111 118 124 125 125 125 123 114 96 79 71 68 70 74 85 91 84 87 87 80 72 66 67 68 55 33 344 326 314 306 304 300 300 298 296 295 290 283 274 268 264 264
249 248 246 245 243 239 237 237 235 232 231 233 234 235 236 238 244 249 253 256 261 264 254 240 249 308 331 353 19 37 46 57 59 61 68 78 84 88 92 91 93 97 101 107 112 113 114 118 122 121 121 120 112 101 86 74 67 68 77 87 94 94 89 89 91 88 79 71 70 65 55 39 13 355 336 323 312 307 308 307 306 305 303 297 289 284 281 275
247 246 245 244 243 239 236 236 235 231 229 230 231 232 232 234 237 242 246 249 252 255 249 237 227 249 298 316 340 45 52 67 69 72 77 86 94 97 100 100 101 107 112 115 115 115 116 116 114 112 111 106 98 93 85 75 68 70 82 94 96 93 89 85 87 88 82 72 66 57 50 40 28 29 23 11 354 338 330 322 315 310 305 301 297 296 298 290
245 245 243 242 241 239 236 235 235 231 228 228 229 229 229 230 233 237 241 244 247 249 246 236 224 225 255 263 241 232 109 91 87 84 87 94 101 105 108 110 113 119 122 120 117 116 114 113 110 105 102 96 95 97 94 94 99 94 91 94 95 90 87 87 83 78 72 68 65 59 50 38 30 32 33 29 24 16 9 0 348 333 317 305 300 298 300 293
245 244 242 239 238 238 236 234 233 231 228 226 227 227 227 227 229 233 236 241 244 247 246 237 226 222 227 238 236 229 217 156 127 110 101 101 109 115 117 119 123 128 127 122 120 118 116 114 110 101 97 98 101 104 110 121 118 105 96 95 94 89 85 84 78 68 62 61 61 59 49 33 27 28 29 29 26 21 19 16 10 2 346 326 312 303 297 289
245 243 241 238 235 235 235 234 233 231 228 225 225 226 225 225 227 230 233 237 241 245 246 238 229 222 215 221 237 230 218 191 168 146 126 120 123 126 129 132 134 135 131 128 127 125 122 118 112 108 106 109 111 113 119 121 113 105 97 91 88 87 83 78 76 68 60 58 56 54 48 36 29 26 27 29 25 21 18 12 7 4 358 347 335 321 305 293
245 243 240 237 234 233 234 233 232 231 228 225 224 224 223 223 224 226 228 233 237 241 243 238 230 222 215 219 232 231 220 203 188 169 149 141 140 139 141 145 144 141 136 133 135 133 128 124 123 132 137 131 129 128 127 122 114 106 97 90 85 83 84 81 78 71 64 58 49 46 46 43 36 28 26 26 23 19 15 9 4 1 357 352 346 337 323 306
244 243 240 237 234 232 232 232 232 231 229 225 223 222 222 221 222 222 225 229 233 238 242 238 231 222 214 213 219 226 220 205 199 187 167 158 158 154 151 153 151 147 143 141 144 142 138 140 147 154 153 146 142 137 132 127 118 109 101 94 87 84 88 88 82 77 72 62 45 40 42 41 37 31 24 22 19 15 12 13 11 5 359 353 348 342 335 321
243 242 239 236 233 232 231 231 230 230 229 225 223 221 220 220 220 221 224 227 229 234 239 237 230 223 216 214 212 218 218 206 205 200 181 170 168 164 161 158 155 153 152 153 155 152 149 158 161 160 157 151 144 140 136 130 120 114 111 103 93 91 92 91 88 83 79 73 54 42 41 37 34 32 26 19 16 12 10 13 14 8 2 357 352 347 342 334
241 242 240 235 232 231 230 230 230 230 228 226 223 220 219 218 218 220 223 225 227 231 236 236 230 223 218 214 211 212 215 210 208 203 190 180 175 171 165 160 157 157 159 164 166 163 164 169 166 162 158 152 145 142 137 128 119 116 116 112 107 103 99 97 95 90 84 78 67 53 46 37 31 29 25 18 11 7 8 10 9 5 2 360 355 349 345 340
239 240 239 235 231 230 229 229 228 228 227 225 222 219 217 216 217 218 220 223 226 228 233 235 231 224 218 214 213 212 212 213 210 203 194 185 179 177 172 165 163 163 164 171 175 174 175 172 167 163 156 149 143 138 133 126 118 111 111 114 114 107 103 105 101 95 85 73 66 58 50 38 29 23 16 13 6 1 3 5 4 1 359 359 356 350 345 339
239 239 238 235 231 228 228 227 226 226 226 224 221 219 216 215 215 217 219 221 224 225 229 233 230 224 217 213 214 214 213 213 210 206 200 192 185 183 180 176 175 172 169 172 178 183 181 171 167 163 152 145 140 133 132 128 124 121 115 114 117 110 105 108 105 99 89 74 56 51 55 26 17 19 6 3 3 355 354 358 358 358 356 355 354 351 345 339
240 238 238 235 230 227 226 226 225 224 224 222 220 218 216 214 214 214 217 220 222 223 226 229 229 224 218 213 209 212 215 211 207 206 203 196 191 188 188 188 186 182 177 173 178 187 183 173 165 157 150 150 146 143 141 132 129 133 125 114 116 113 106 103 100 95 91 87 58 53 72 346 347 10 358 351 356 350 347 350 351 352 353 350 349 348 346 342
241 239 237 235 230 226 225 224 224 223 223 221 218 216 214 213 212 213 215 219 221 222 223 225 228 225 220 215 210 213 214 208 205 204 200 195 191 190 194 195 193 189 184 178 179 186 186 181 173 162 159 161 166 174 168 151 143 144 143 134 126 116 108 103 96 91 86 83 63 45 59 18 329 351 352 341 343 343 340 342 343 343 345 345 344 342 341 341
243 241 238 235 230 225 223 223 223 222 221 220 217 215 213 212 211 211 214 218 219 221 223 224 226 225 221 218 215 215 214 209 205 202 201 199 195 194 196 197 197 194 189 186 185 185 187 189 182 176 178 179 189 198 189 175 170 169 181 187 143 109 105 106 99 90 82 73 64 34 24 16 325 328 340 329 328 335 333 333 335 335 336 336 337 337 336 336
244 242 239 235 230 224 222 221 221 221 220 218 215 212 211 211 210 209 213 218 218 219 222 223 224 223 221 219 216 215 215 213 208 204 204 203 198 198 197 196 197 196 193 193 192 189 193 199 192 190 203 214 219 215 201 191 190 190 198 220 262 64 72 78 82 80 76 64 51 22 360 9 308 303 321 323 322 328 327 327 328 328 329 328 328 330 330 330
244 243 240 236 230 224 220 219 220 220 219 216 212 209 209 209 208 208 212 215 216 218 221 223 223 223 220 218 216 215 215 213 211 210 208 204 201 200 199 196 195 198 197 197 198 196 199 207 207 207 216 228 237 237 229 218 213 212 207 226 278 303 339 9 11 10 18 355 334 324 327 349 285 286 311 321 319 321 322 321 322 322 323 323 323 322 323 324
244 244 242 237 231 224 220 218 218 218 217 215 210 207 207 207 206 207 210 213 215 217 219 221 222 221 219 217 215 215 214 210 209 211 210 207 205 201 200 199 197 197 197 201 207 209 211 215 218 223 229 236 244 249 253 255 248 239 235 258 300 312 318 332 331 333 340 321 311 309 310 319 275 280 302 311 310 314 316 316 317 318 318 317 317 317 317 318
244 244 243 238 231 224 219 217 217 217 215 212 208 205 205 204 204 207 209 210 213 214 215 217 219 218 217 217 216 215 213 210 207 209 210 209 207 203 202 203 199 194 200 208 213 218 226 226 223 229 239 246 253 257 260 266 265 260 275 298 305 304 308 315 311 316 317 304 304 308 307 308 282 285 300 304 305 310 310 312 312 312 313 312 312 313 312 313
243 244 243 238 231 223 218 216 215 215 213 210 206 204 203 202 203 205 206 208 212 213 213 214 215 215 216 217 218 217 216 214 210 209 210 209 208 207 206 205 199 199 207 211 213 221 235 244 240 237 243 247 248 251 254 259 260 254 266 282 282 282 292 299 298 309 310 298 300 304 304 307 291 290 301 302 303 307 306 307 307 305 307 307 307 308 308 309
243 245 244 239 231 223 216 214 213 212 211 208 205 203 202 201 202 204 205 208 211 212 214 215 215 216 217 218 218 218 219 219 216 214 213 209 209 211 210 206 201 206 213 214 216 221 229 246 248 244 247 247 242 242 247 257 262 258 262 268 267 271 278 280 282 286 285 286 297 303 301 303 296 296 303 301 301 303 301 301 301 300 301 302 303 305 305 306
242 244 244 239 231 222 216 213 211 211 209 206 204 202 200 199 200 203 206 207 208 210 213 216 217 218 220 219 218 218 219 220 220 219 217 213 210 209 209 207 205 210 216 217 223 223 224 239 247 247 248 248 245 245 246 255 262 262 265 266 267 271 273 274 275 274 275 285 295 300 299 297 294 296 299 297 297 297 296 297 297 297 298 300 301 301 301 303
240 243 242 237 230 222 216 212 209 209 207 204 202 200 199 199 200 202 205 206 207 210 212 216 218 219 220 220 220 220 221 222 222 222 222 219 215 212 211 212 211 214 218 220 226 225 227 241 247 247 248 247 247 251 250 252 259 261 262 267 273 277 277 279 281 280 284 290 294 298 300 297 293 293 293 293 295 296 296 295 296 297 298 298 299 299 300 302
238 240 240 236 229 221 214 209 207 206 205 203 201 199 200 201 202 203 204 204 207 209 211 214 216 219 221 222 222 223 224 225 224 224 224 222 220 218 217 218 219 221 224 227 232 230 231 246 251 247 249 249 246 251 252 249 255 260 259 265 275 277 277 280 285 289 292 296 298 298 296 294 293 294 295 294 295 297 297 296 296 297 297 297 298 299 300 301
235 237 236 233 227 219 211 206 204 204 203 200 200 200 201 202 201 202 203 203 206 208 209 212 213 215 219 222 224 224 225 226 226 226 227 225 224 225 225 228 229 230 232 232 237 237 234 246 253 248 249 251 249 252 256 253 253 258 261 265 272 276 279 280 283 291 295 298 298 295 292 290 286 289 295 296 295 297 298 297 298 298 297 298 298 299 300 301
233 232 231 227 223 216 208 204 202 202 201 198 198 201 202 201 201 201 202 203 205 206 208 211 211 213 214 217 221 222 223 226 228 228 229 228 227 228 231 235 236 237 239 237 238 240 236 240 249 249 249 254 254 255 261 261 255 257 263 268 271 275 280 282 285 289 291 291 289 289 292 292 287 289 294 294 295 297 298 297 297 298 298 299 299 299 300 300
232 228 227 223 218 212 205 202 201 200 199 199 200 201 202 201 201 201 201 203 204 207 208 209 210 212 214 215 219 220 221 225 229 228 229 229 227 226 229 235 237 237 240 240 239 241 239 238 247 252 253 257 259 257 260 265 264 265 268 271 273 276 277 279 283 285 285 285 285 286 287 288 291 294 292 292 295 297 297 296 297 297 298 298 299 299 300 300
233 225 223 219 214 210 204 201 200 198 199 201 202 203 203 202 202 201 202 203 205 207 208 209 211 213 215 217 218 221 223 226 229 231 232 231 229 228 229 233 237 237 237 240 239 240 242 239 243 251 253 255 260 262 261 264 268 270 272 273 276 279 280 281 284 284 282 282 284 287 285 284 291 295 292 291 294 295 296 297 296 297 298 298 298 299 299 300
235 224 220 216 212 209 206 203 200 198 199 203 204 205 205 204 203 203 203 203 205 208 209 210 213 215 217 219 220 221 224 226 229 232 233 233 231 232 232 234 238 237 235 236 237 238 241 240 241 247 251 253 258 263 264 265 267 268 270 273 274 277 279 281 283 284 285 285 285 286 286 285 288 291 291 292 294 295 296 297 297 297 298 298 298 299 299 300
236 226 219 216 212 208 207 206 203 200 201 204 205 207 207 206 206 205 204 204 205 208 211 212 215 217 219 222 223 224 226 228 231 233 234 236 236 236 236 237 239 240 238 238 238 237 239 240 241 246 250 253 255 258 262 266 268 269 270 271 274 276 278 280 281 282 284 286 287 288 288 288 290 292 292 293 295 297 297 298 298 298 299 299 299 299 300 300
235 229 220 216 212 209 208 207 205 204 204 204 204 207 208 208 208 208 207 208 208 210 213 214 216 218 221 222 224 227 228 230 234 237 239 241 242 242 241 240 241 242 242 242 241 240 241 242 243 247 254 259 261 260 260 262 266 270 271 271 272 275 277 279 280 281 282 284 286 289 288 288 292 296 294 294 296 297 297 298 298 299 299 300 300 301 301 301
230 230 222 217 213 211 210 209 208 208 208 206 205 206 208 209 211 211 210 211 212 214 216 217 218 220 222 223 224 227 229 232 236 241 244 245 247 248 248 246 245 245 246 245 244 243 243 244 244 248 255 263 267 267 265 264 265 267 270 271 272 274 276 278 280 283 284 285 288 288 286 288 293 295 294 295 297 296 297 298 298 298 299 300 301 301 301 301
227 228 225 219 215 212 211 211 210 210 209 209 208 207 208 210 212 213 213 213 215 217 218 220 222 223 224 226 227 228 231 234 238 241 243 244 245 247 249 249 248 249 248 248 248 246 247 248 248 251 255 260 263 266 268 269 270 271 272 272 273 275 277 280 282 284 286 289 290 289 288 290 292 294 295 296 296 296 296 297 297 298 299 300 301 301 301 301
226 226 226 222 216 214 213 212 212 213 212 212 212 210 210 210 212 214 216 216 218 219 220 221 223 225 226 229 230 232 235 238 240 241 242 244 245 248 251 251 251 252 251 252 253 253 254 255 254 255 259 261 263 266 269 271 273 274 276 276 278 279 281 283 285 287 289 291 290 291 293 293 292 295 297 296 295 296 296 297 298 299 300 301 302 302 301 301
226 225 225 225 220 216 214 213 213 214 214 214 214 214 213 212 212 214 217 219 220 222 222 223 225 226 228 230 232 235 238 241 243 244 245 247 250 253 255 255 255 256 256 257 257 258 262 262 258 258 260 262 265 268 269 271 273 275 277 280 282 284 286 287 288 289 291 291 291 293 296 296 294 296 296 295 294 295 296 297 299 300 301 302 302 302 301 301
227 224 224 225 224 219 215 214 214 215 215 216 216 216 217 216 216 216 218 221 223 225 226 226 228 229 229 230 233 236 239 241 242 245 247 250 253 255 257 258 258 259 260 262 261 262 265 265 261 260 262 262 265 268 270 271 274 277 280 283 285 287 288 289 290 291 292 292 292 294 295 295 294 294 293 293 294 294 296 298 299 301 302 302 302 301 301 301
228 225 223 224 225 222 218 216 215 215 215 216 216 217 219 220 220 220 220 222 225 228 230 230 233 234 234 235 236 237 240 241 243 246 249 253 255 256 258 259 260 262 264 266 266 266 267 266 263 262 263 264 266 269 271 274 277 279 281 283 285 286 288 288 289 290 291 292 293 294 293 292 292 291 291 292 293 294 296 298 299 301 301 301 302 302 301 301
229 227 224 223 224 224 220 218 216 215 216 215 216 218 219 221 223 224 225 226 227 230 233 234 236 239 240 240 242 243 244 246 249 252 254 256 256 256 258 260 262 265 267 269 270 268 266 266 265 264 264 265 267 270 272 275 277 279 280 282 283 285 286 287 288 289 291 291 292 292 291 290 290 290 290 291 293 294 296 298 299 301 302 303 303 303 302 300
229 228 225 223 224 224 222 220 217 216 216 216 216 217 219 221 223 224 226 228 230 232 235 236 239 242 244 245 246 248 249 252 255 257 257 257 258 259 260 261 263 263 265 268 270 268 265 265 265 264 265 267 268 270 273 275 277 278 279 281 283 284 285 286 288 289 290 291 290 290 289 289 289 289 289 291 293 295 297 298 300 302 303 304 304 303 301 299
Height
5934 5934 5934 5934 5934 5934 5934 5934 5933 5933 5933 5933 5932 5931 5931 5930 5930 5929 5929 5928 5927 5926 5925 5924 5923 5922 5921 5920 5919 5918 5917 5915 5914 5913 5912 5911 5910 5910 5910 5909 5909 5910 5910 5911 5912 5913 5915 5916 5917 5918 5919 5920 5920 5921 5921 5921 5921 5921 5921 5921 5921 5921 5921 5921 5921 5922 5922 5922 5922 5922 5923 5923 5923 5923 5923 5923 5923 5923 5924 5924 5923 5923 5923 5923 5923 5924 5925 5925
5933 5933 5933 5933 5934 5934 5934 5933 5933 5933 5933 5932 5932 5931 5931 5930 5930 5929 5929 5928 5927 5926 5926 5925 5924 5923 5922 5921 5920 5918 5917 5916 5915 5914 5913 5912 5912 5911 5911 5911 5911 5911 5912 5912 5913 5915 5916 5917 5918 5919 5920 5920 5921 5921 5922 5922 5922 5922 5922 5922 5922 5922 5921 5921 5922 5922 5922 5923 5923 5923 5923 5923 5924 5924 5924 5924 5924 5924 5924 5924 5924 5923 5923 5923 5923 5924 5925 5926
5932 5932 5932 5933 5933 5933 5933 5933 5933 5932 5932 5932 5932 5931 5930 5930 5930 5929 5929 5928 5927 5927 5926 5925 5924 5923 5922 5921 5920 5919 5918 5916 5915 5915 5914 5913 5913 5912 5912 5912 5912 5913 5913 5914 5915 5916 5917 5918 5919 5919 5920 5921 5922 5922 5922 5923 5923 5923 5923 5922 5922 5922 5922 5922 5922 5922 5922 5922 5923 5923 5923 5923 5923 5924 5924 5924 5924 5924 5924 5924 5924 5923 5923 5923 5923 5924 5924 5925
5930 5931 5931 5932 5932 5932 5932 5932 5932 5932 5932 5932 5931 5931 5930 5930 5930 5929 5929 5928 5927 5927 5926 5925 5925 5924 5923 5922 5921 5919 5918 5917 5916 5915 5915 5914 5914 5913 5913 5913 5913 5914 5915 5915 5916 5917 5918 5919 5919 5920 5921 5922 5922 5922 5923 5923 5923 5923 5923 5923 5923 5923 5923 5922 5922 5922 5922 5922 5922 5923 5923 5923 5923 5923 5923 5924 5924 5924 5924 5924 5924 5924 5924 5924 5924 5924 5924 5925
5929 5929 5930 5931 5931 5931 5932 5932 5932 5932 5932 5931 5931 5931 5930 5930 5930 5929 5929 5928 5928 5927 5927 5926 5925 5924 5923 5922 5921 5920 5919 5918 5917 5916 5916 5915 5915 5914 5914 5915 5915 5915 5916 5917 5917 5918 5919 5920 5920 5921 5922 5922 5923 5923 5924 5924 5924 5924 5924 5924 5924 5924 5923 5923 5923 5922 5922 5922 5922 5923 5923 5923 5923 5923 5923 5924 5924 5924 5924 5924 5924 5924 5924 5924 5923 5924 5924 5925
5927 5928 5929 5929 5930 5930 5931 5931 5931 5931 5931 5931 5931 5930 5930 5930 5929 5929 5929 5928 5928 5927 5927 5926 5925 5924 5924 5923 5922 5921 5920 5919 5918 5917 5917 5916 5916 5916 5916 5916 5917 5917 5917 5918 5918 5919 5920 5920 5921 5922 5923 5923 5924 5924 5925 5925 5925 5925 5925 5925 5924 5924 5924 5924 5923 5923 5923 5923 5923 5923 5923 5923 5924 5923 5923 5924 5924 5924 5924 5924 5924 5924 5924 5924 5924 5924 5924 5925
5925 5926 5927 5928 5929 5929 5930 5930 5930 5930 5930 5930 5930 5930 5930 5929 5929 5929 5928 5928 5928 5927 5927 5926 5925 5925 5924 5923 5922 5921 5920 5919 5919 5918 5918 5917 5917 5917 5917 5917 5918 5918 5919 5919 5919 5920 5920 5921 5922 5923 5923 5924 5925 5925 5925 5926 5926 5926 5926 5926 5925 5925 5924 5924 5924 5924 5923 5923 5923 5923 5924 5924 5924 5924 5923 5923 5923 5923 5923 5924 5924 5924 5924 5924 5924 5924 5924 5925
5923 5924 5925 5926 5927 5928 5929 5929 5929 5930 5930 5930 5930 5930 5929 5929 5929 5929 5928 5928 5928 5928 5927 5927 5926 5925 5924 5924 5923 5922 5921 5920 5919 5919 5918 5918 5918 5918 5918 5918 5919 5919 5920 5920 5920 5921 5921 5922 5923 5923 5924 5925 5926 5926 5926 5926 5927 5926 5926 5926 5926 5925 5925 5925 5924 5924 5924 5924 5923 5923 5923 5924 5924 5924 5923 5923 5923 5923 5923 5923 5923 5923 5923 5923 5924 5924 5924 5924
5921 5922 5923 5924 5925 5926 5927 5928 5928 5929 5929 5929 5929 5929 5929 5929 5929 5928 5928 5928 5928 5927 5927 5927 5926 5925 5925 5924 5923 5923 5922 5921 5920 5920 5919 5919 5919 5919 5919 5919 5919 5920 5920 5921 5921 5922 5922 5923 5924 5924 5925 5926 5927 5927 5927 5927 5927 5927 5927 5927 5926 5926 5926 5925 5925 5925 5925 5924 5924 5924 5923 5923 5923 5924 5923 5923 5923 5923 5923 5923 5923 5923 5923 5923 5923 5924 5924 5924
5919 5920 5921 5922 5923 5924 5925 5926 5927 5927 5928 5928 5928 5928 5928 5928 5928 5928 5928 5928 5927 5927 5927 5927 5926 5925 5925 5924 5924 5923 5923 5922 5921 5921 5920 5920 5920 5920 5920 5920 5920 5921 5921 5922 5922 5923 5923 5924 5925 5925 5926 5927 5927 5928 5928 5928 5928 5928 5928 5928 5927 5927 5926 5926 5926 5925 5925 5925 5924 5924 5924 5923 5923 5924 5924 5923 5923 5923 5923 5923 5923 5923 5923 5923 5923 5923 5924 5924
5916 5917 5918 5920 5921 5922 5923 5924 5925 5926 5926 5927 5927 5928 5928 5928 5928 5928 5927 5927 5927 5927 5927 5927 5926 5926 5925 5925 5924 5924 5923 5923 5922 5922 5921 5921 5921 5921 5921 5921 5921 5922 5922 5923 5923 5923 5924 5924 5925 5926 5927 5927 5928 5928 5929 5929 5929 5928 5928 5928 5928 5927 5927 5926 5926 5926 5925 5925 5925 5925 5924 5924 5923 5923 5923 5923 5923 5923 5922 5922 5922 5923 5923 5923 5923 5923 5923 5923
5913 5914 5916 5917 5918 5920 5921 5922 5923 5924 5925 5926 5926 5927 5927 5927 5927 5927 5927 5927 5927 5927 5927 5927 5926 5926 5925 5925 5925 5924 5924 5923 5923 5922 5922 5922 5921 5922 5922 5922 5922 5923 5923 5923 5924 5924 5925 5925 5926 5927 5927 5928 5928 5929 5929 5929 5929 5929 5929 5929 5929 5928 5928 5927 5927 5926 5926 5926 5925 5925 5925 5924 5924 5924 5923 5923 5923 5923 5922 5922 5922 5922 5922 5923 5922 5922 5922 5922
5910 5912 5913 5914 5916 5917 5919 5920 5921 5922 5923 5924 5925 5925 5926 5926 5926 5926 5926 5926 5926 5926 5926 5926 5926 5926 5926 5925 5925 5925 5924 5924 5924 5923 5923 5923 5923 5922 5923 5923 5923 5923 5924 5924 5925 5925 5926 5926 5926 5927 5928 5928 5929 5929 5929 5929 5930 5930 5930 5930 5930 5930 5929 5928 5928 5927 5927 5926 5926 5926 5926 5925 5925 5924 5924 5923 5923 5923 5922 5922 5922 5921 5921 5922 5922 5921 5921 5921
5908 5909 5910 5911 5913 5914 5916 5918 5919 5921 5922 5922 5923 5924 5925 5925 5925 5925 5926 5926 5926 5925 5926 5926 5926 5926 5926 5926 5925 5925 5925 5925 5924 5924 5924 5924 5923 5923 5923 5923 5923 5924 5924 5925 5925 5926 5926 5927 5927 5927 5928 5929 5929 5930 5930 5930 5930 5930 5930 5931 5931 5930 5930 5929 5929 5928 5928 5927 5927 5927 5927 5926 5925 5925 5924 5923 5923 5922 5922 5922 5921 5921 5920 5920 5920 5920 5920 5921
5904 5906 5907 5909 5910 5912 5913 5915 5917 5918 5920 5921 5922 5923 5923 5924 5924 5924 5925 5925 5925 5925 5925 5925 5926 5926 5926 5926 5925 5925 5925 5925 5925 5924 5924 5924 5924 5924 5924 5924 5924 5924 5924 5925 5926 5926 5926 5927 5927 5927 5928 5929 5929 5930 5930 5931 5931 5931 5931 5931 5931 5931 5930 5930 5929 5929 5929 5928 5928 5928 5927 5927 5926 5925 5925 5924 5923 5922 5922 5921 5921 5920 5920 5919 5919 5919 5920 5921
5901 5903 5904 5906 5907 5909 5910 5912 5914 5916 5917 5919 5920 5921 5922 5922 5923 5923 5924 5924 5924 5924 5924 5925 5925 5925 5926 5926 5925 5925 5925 5925 5925 5925 5925 5925 5925 5925 5925 5925 5925 5925 5925 5925 5926 5926 5927 5927 5928 5928 5928 5929 5930 5930 5931 5931 5931 5931 5932 5932 5931 5931 5931 5930 5930 5930 5929 5929 5929 5929 5928 5928 5927 5926 5925 5924 5923 5922 5922 5921 5920 5920 5919 5918 5918 5919 5919 5920
5898 5899 5901 5903 5904 5906 5908 5909 5911 5914 5915 5917 5918 5919 5920 5921 5921 5922 5923 5923 5923 5923 5924 5924 5924 5925 5925 5925 5925 5925 5925 5925 5925 5925 5925 5925 5925 5926 5926 5926 5926 5926 5926 5926 5926 5927 5927 5928 5928 5929 5929 5930 5930 5931 5931 5932 5932 5932 5932 5932 5931 5931 5931 5931 5930 5930 5930 5929 5929 5929 5929 5928 5927 5926 5925 5924 5923 5923 5922 5921 5920 5919 5918 5918 5917 5918 5918 5918
5894 5896 5898 5899 5901 5903 5905 5907 5908 5911 5913 5914 5915 5917 5918 5919 5920 5921 5921 5922 5922 5923 5923 5923 5924 5924 5924 5925 5925 5925 5925 5925 5926 5926 5926 5926 5926 5926 5926 5926 5926 5927 5927 5926 5927 5927 5928 5928 5929 5929 5930 5930 5931 5931 5932 5932 5932 5932 5932 5932 5932 5931 5931 5931 5930 5930 5930 5930 5929 5929 5929 5928 5927 5926 5925 5924 5924 5923 5922 5922 5921 5920 5918 5917 5917 5917 5917 5917
5891 5893 5894 5896 5898 5900 5902 5904 5906 5908 5910 5912 5913 5914 5916 5917 5918 5919 5920 5921 5921 5922 5922 5922 5923 5923 5924 5924 5924 5925 5925 5925 5925 5926 5926 5926 5926 5926 5926 5927 5927 5927 5927 5927 5927 5928 5929 5929 5929 5930 5931 5931 5931 5932 5932 5932 5932 5932 5932 5932 5932 5932 5931 5931 5931 5930 5930 5930 5929 5929 5929 5928 5927 5926 5925 5924 5924 5923 5922 5921 5920 5919 5918 5917 5916 5916 5916 5916
5887 5889 5891 5893 5895 5897 5899 5901 5903 5905 5907 5909 5910 5912 5914 5915 5916 5917 5918 5919 5920 5920 5921 5921 5922 5922 5923 5923 5924 5924 5925 5925 5925 5925 5926 5926 5926 5927 5927 5927 5927 5927 5927 5927 5928 5928 5929 5930 5930 5931 5931 5932 5932 5932 5932 5932 5932 5932 5932 5933 5932 5932 5932 5931 5931 5931 5930 5930 5930 5929 5928 5928 5927 5926 5925 5924 5924 5923 5922 5921 5920 5919 5917 5916 5916 5915 5915 5915
5884 5886 5888 5890 5892 5894 5896 5898 5900 5902 5904 5906 5908 5910 5911 5913 5914 5916 5917 5918 5919 5919 5920 5920 5921 5921 5922 5923 5923 5923 5924 5924 5925 5925 5925 5926 5926 5926 5927 5927 5927 5927 5927 5928 5928 5929 5930 5930 5931 5931 5932 5932 5933 5933 5933 5933 5933 5932 5933 5933 5933 5933 5933 5932 5931 5931 5930 5930 5930 5929 5928 5928 5927 5926 5925 5924 5924 5923 5922 5921 5920 5919 5917 5916 5915 5915 5914 5914
5881 5882 5884 5886 5888 5890 5892 5895 5897 5899 5901 5903 5905 5907 5909 5911 5913 5914 5915 5916 5917 5918 5918 5919 5920 5920 5921 5922 5922 5923 5923 5923 5924 5924 5925 5925 5926 5926 5927 5927 5927 5927 5928 5928 5929 5930 5930 5931 5931 5932 5932 5932 5933 5933 5933 5933 5933 5933 5933 5933 5933 5933 5933 5932 5932 5931 5930 5930 5930 5929 5929 5928 5927 5926 5926 5925 5924 5923 5922 5921 5920 5919 5917 5916 5915 5914 5914 5914
5877 5879 5881 5883 5885 5887 5889 5891 5894 5896 5898 5900 5902 5904 5907 5909 5910 5912 5913 5914 5916 5916 5917 5918 5918 5919 5920 5921 5921 5922 5922 5923 5923 5924 5924 5924 5925 5926 5926 5927 5927 5928 5928 5929 5930 5930 5931 5931 5932 5932 5932 5933 5933 5933 5933 5934 5934 5933 5933 5933 5933 5933 5932 5932 5932 5931 5931 5930 5930 5929 5929 5928 5927 5926 5926 5925 5924 5923 5922 5921 5920 5919 5917 5916 5915 5914 5913 5913
5874 5876 5878 5880 5882 5884 5886 5888 5891 5892 5894 5897 5899 5902 5904 5907 5908 5910 5911 5913 5914 5915 5916 5916 5917 5918 5919 5919 5920 5920 5921 5922 5922 5923 5923 5924 5924 5925 5926 5927 5927 5928 5928 5929 5930 5930 5931 5931 5932 5932 5932 5933 5933 5933 5934 5934 5934 5934 5934 5933 5933 5933 5932 5932 5931 5931 5931 5930 5930 5929 5929 5928 5927 5926 5925 5925 5924 5923 5922 5921 5920 5919 5917 5916 5915 5914 5913 5912
5871 5873 5875 5877 5879 5881 5883 5885 5887 5889 5891 5893 5896 5899 5902 5904 5906 5908 5909 5911 5912 5913 5914 5915 5915 5916 5917 5918 5919 5919 5920 5920 5921 5922 5922 5923 5923 5924 5925 5926 5927 5927 5928 5929 5930 5930 5931 5931 5932 5932 5933 5933 5933 5934 5934 5934 5934 5935 5934 5934 5933 5933 5933 5932 5931 5931 5930 5930 5930 5929 5929 5929 5928 5926 5925 5924 5923 5922 5921 5921 5920 5919 5918 5916 5916 5915 5913 5912
5869 5870 5872 5874 5876 5878 5880 5882 5884 5886 5888 5890 5894 5897 5900 5902 5904 5905 5907 5909 5910 5911 5912 5913 5914 5915 5916 5917 5918 5918 5919 5920 5920 5921 5921 5922 5923 5924 5925 5926 5927 5927 5928 5928 5929 5930 5931 5931 5932 5932 5933 5933 5933 5934 5934 5934 5934 5935 5934 5934 5933 5933 5932 5932 5931 5931 5930 5930 5930 5928 5929 5929 5928 5926 5925 5924 5923 5922 5921 5920 5919 5918 5917 5916 5915 5914 5913 5912
5867 5868 5869 5871 5873 5875 5877 5879 5881 5883 5885 5887 5891 5895 5897 5900 5901 5903 5905 5906 5908 5909 5910 5911 5912 5913 5914 5915 5916 5917 5918 5919 5919 5920 5921 5921 5922 5923 5924 5925 5926 5927 5927 5928 5929 5930 5931 5931 5931 5932 5932 5933 5933 5933 5933 5933 5933 5934 5934 5933 5933 5932 5932 5932 5931 5931 5930 5930 5929 5928 5928 5928 5927 5926 5925 5923 5922 5922 5921 5920 5919 5918 5917 5916 5915 5914 5913 5912
5864 5865 5867 5868 5870 5872 5874 5876 5878 5880 5882 5885 5888 5892 5895 5897 5899 5901 5903 5904 5906 5907 5909 5910 5911 5912 5913 5914 5915 5916 5917 5917 5918 5919 5920 5920 5921 5922 5923 5925 5925 5926 5927 5928 5928 5929 5930 5930 5930 5931 5932 5932 5933 5933 5933 5932 5932 5932 5933 5933 5932 5931 5931 5931 5931 5930 5930 5930 5929 5929 5928 5927 5927 5925 5924 5923 5922 5921 5920 5919 5918 5917 5916 5915 5914 5913 5912 5911
5862 5863 5864 5865 5867 5869 5871 5873 5875 5877 5880 5882 5886 5889 5892 5894 5896 5899 5900 5902 5904 5905 5907 5908 5909 5910 5911 5912 5914 5914 5915 5916 5917 5917 5918 5919 5920 5922 5923 5924 5925 5925 5926 5927 5927 5928 5929 5929 5930 5930 5931 5931 5932 5932 5932 5932 5932 5931 5932 5932 5932 5931 5931 5931 5930 5930 5930 5929 5929 5929 5928 5927 5927 5925 5923 5922 5921 5920 5919 5918 5917 5916 5915 5914 5914 5913 5911 5910
5860 5861 5862 5863 5864 5866 5868 5870 5873 5875 5877 5880 5883 5886 5889 5891 5894 5896 5898 5900 5902 5903 5905 5906 5907 5909 5910 5911 5912 5913 5914 5915 5916 5916 5917 5918 5919 5921 5922 5923 5924 5925 5926 5926 5927 5927 5928 5928 5929 5930 5930 5931 5931 5932 5932 5932 5932 5931 5931 5931 5931 5931 5931 5930 5930 5930 5929 5929 5929 5928 5927 5926 5926 5924 5922 5921 5920 5919 5918 5917 5916 5915 5914 5913 5912 5911 5910 5909
5858 5859 5860 5861 5862 5864 5866 5868 5870 5873 5875 5878 5881 5884 5886 5889 5891 5893 5895 5898 5900 5901 5903 5904 5906 5907 5908 5910 5911 5912 5913 5914 5914 5915 5916 5917 5918 5919 5920 5921 5922 5924 5925 5926 5926 5926 5927 5927 5928 5929 5929 5930 5930 5931 5931 5931 5931 5931 5930 5930 5931 5930 5930 5930 5929 5929 5929 5928 5928 5927 5926 5925 5924 5923 5921 5920 5920 5919 5917 5916 5915 5914 5913 5912 5911 5910 5909 5908
5856 5857 5858 5859 5860 5861 5863 5865 5868 5870 5873 5876 5878 5881 5883 5886 5889 5891 5893 5896 5898 5899 5901 5903 5904 5905 5907 5908 5909 5910 5911 5912 5913 5914 5915 5916 5917 5918 5919 5920 5921 5922 5924 5925 5925 5926 5926 5926 5927 5928 5928 5929 5929 5930 5930 5930 5930 5930 5929 5929 5930 5930 5930 5929 5929 5928 5928 5927 5926 5926 5925 5924 5923 5921 5920 5919 5918 5917 5916 5915 5914 5912 5911 5910 5909 5908 5907 5906
5854 5855 5856 5857 5858 5859 5861 5863 5866 5868 5870 5873 5876 5878 5881 5884 5886 5888 5891 5893 5894 5897 5899 5900 5902 5903 5905 5906 5907 5909 5910 5911 5912 5912 5914 5915 5916 5917 5918 5919 5920 5921 5922 5923 5924 5925 5925 5926 5926 5927 5927 5928 5928 5929 5929 5929 5929 5929 5929 5929 5929 5929 5929 5929 5928 5928 5927 5926 5924 5924 5923 5922 5921 5919 5918 5917 5916 5915 5915 5914 5913 5911 5910 5909 5907 5906 5905 5904
5853 5853 5854 5855 5856 5857 5859 5861 5863 5866 5868 5871 5873 5876 5879 5881 5884 5886 5888 5890 5892 5895 5897 5898 5900 5901 5903 5904 5906 5907 5908 5909 5910 5911 5912 5913 5915 5916 5917 5918 5919 5919 5920 5921 5922 5923 5924 5925 5924 5925 5925 5926 5927 5927 5927 5928 5928 5928 5928 5928 5928 5927 5927 5927 5927 5927 5926 5924 5923 5922 5921 5920 5919 5917 5916 5915 5914 5914 5913 5912 5911 5910 5908 5907 5905 5904 5903 5902
5851 5852 5852 5853 5854 5855 5857 5859 5861 5864 5866 5868 5871 5874 5876 5879 5881 5883 5885 5888 5891 5893 5895 5896 5898 5900 5901 5902 5904 5905 5906 5907 5909 5910 5911 5912 5913 5914 5915 5916 5917 5918 5919 5920 5921 5922 5923 5923 5922 5923 5923 5924 5925 5925 5926 5926 5926 5926 5926 5926 5926 5926 5925 5925 5925 5924 5924 5922 5921 5920 5919 5918 5917 5915 5914 5913 5912 5912 5911 5910 5909 5907 5906 5905 5903 5902 5901 5899
5849 5850 5851 5851 5852 5853 5855 5857 5859 5861 5864 5866 5869 5871 5873 5875 5877 5880 5882 5886 5888 5890 5892 5894 5896 5898 5899 5900 5902 5903 5904 5906 5907 5908 5909 5910 5911 5912 5913 5914 5915 5916 5917 5918 5919 5920 5921 5920 5920 5921 5921 5922 5923 5923 5924 5924 5924 5924 5924 5924 5924 5924 5923 5923 5922 5922 5922 5920 5919 5918 5917 5916 5914 5913 5912 5911 5910 5909 5909 5907 5906 5905 5904 5903 5901 5900 5898 5897
5847 5848 5849 5850 5851 5852 5853 5855 5857 5859 5861 5864 5866 5869 5871 5873 5875 5878 5881 5884 5886 5888 5891 5892 5894 5896 5897 5899 5900 5901 5903 5904 5906 5907 5908 5909 5910 5911 5912 5913 5913 5914 5915 5916 5917 5918 5919 5919 5918 5919 5919 5919 5920 5921 5921 5922 5922 5922 5922 5922 5922 5921 5921 5921 5920 5919 5919 5918 5917 5916 5916 5914 5912 5911 5910 5909 5907 5907 5906 5905 5903 5903 5901 5900 5899 5897 5896 5894
5846 5847 5848 5848 5849 5850 5852 5853 5855 5857 5859 5862 5865 5867 5869 5871 5874 5877 5879 5882 5884 5886 5889 5890 5892 5894 5896 5897 5898 5900 5902 5903 5904 5905 5906 5907 5908 5909 5910 5911 5912 5913 5913 5914 5915 5916 5917 5917 5916 5916 5917 5917 5918 5919 5919 5919 5920 5920 5920 5920 5920 5919 5919 5918 5918 5917 5916 5916 5915 5914 5913 5912 5910 5908 5907 5906 5905 5904 5903 5902 5900 5899 5898 5897 5896 5894 5893 5892
5844 5845 5846 5847 5848 5849 5850 5852 5853 5855 5858 5860 5863 5865 5867 5870 5872 5875 5877 5880 5882 5884 5886 5888 5890 5892 5894 5895 5896 5898 5900 5901 5902 5904 5905 5905 5907 5908 5909 5909 5910 5911 5911 5912 5913 5914 5915 5915 5914 5914 5914 5915 5915 5916 5917 5917 5917 5917 5917 5918 5917 5917 5917 5916 5915 5915 5914 5913 5913 5912 5910 5909 5908 5906 5905 5903 5901 5901 5900 5899 5898 5896 5895 5894 5892 5891 5890 5889
5843 5844 5845 5846 5847 5848 5849 5851 5852 5854 5857 5859 5861 5863 5865 5868 5870 5873 5875 5878 5880 5882 5884 5886 5888 5890 5891 5893 5894 5896 5898 5899 5900 5902 5902 5903 5905 5906 5907 5907 5908 5909 5910 5910 5911 5912 5912 5913 5912 5912 5912 5913 5913 5914 5915 5914 5915 5915 5915 5915 5915 5915 5914 5913 5913 5912 5912 5911 5910 5909 5908 5906 5904 5904 5902 5900 5899 5898 5897 5896 5894 5893 5892 5890 5889 5887 5886 5885
5841 5842 5843 5844 5846 5847 5848 5849 5851 5853 5856 5858 5859 5862 5864 5866 5869 5871 5874 5876 5878 5880 5882 5884 5886 5887 5889 5891 5892 5894 5895 5897 5898 5899 5900 5901 5903 5904 5905 5906 5906 5907 5908 5908 5909 5909 5910 5910 5910 5910 5910 5910 5910 5911 5912 5912 5912 5912 5912 5912 5912 5912 5911 5911 5910 5909 5909 5908 5907 5906 5905 5902 5900 5900 5899 5897 5896 5895 5893 5892 5891 5890 5889 5887 5885 5884 5882 5880
5839 5840 5841 5843 5844 5846 5847 5848 5850 5852 5854 5856 5858 5860 5863 5865 5867 5870 5872 5874 5876 5878 5880 5882 5883 5885 5887 5888 5890 5891 5893 5895 5896 5897 5898 5899 5900 5901 5903 5904 5904 5905 5906 5906 5906 5907 5907 5908 5908 5908 5907 5908 5908 5908 5909 5909 5910 5910 5909 5909 5909 5909 5908 5908 5907 5906 5905 5905 5904 5902 5901 5899 5897 5897 5896 5894 5893 5892 5890 5889 5888 5886 5885 5883 5881 5880 5878 5876
5838 5838 5840 5841 5843 5844 5846 5847 5849 5851 5852 5854 5857 5860 5862 5864 5866 5868 5870 5872 5874 5876 5878 5880 5882 5883 5885 5886 5888 5890 5891 5893 5894 5895 5896 5897 5898 5900 5901 5902 5902 5903 5903 5904 5904 5905 5905 5906 5906 5906 5905 5905 5906 5906 5906 5906 5907 5907 5906 5907 5906 5906 5905 5905 5904 5903 5902 5901 5900 5899 5897 5895 5894 5894 5892 5891 5889 5888 5887 5885 5884 5882 5881 5879 5877 5875 5874 5872
5836 5837 5838 5839 5841 5843 5844 5846 5847 5849 5851 5853 5855 5858 5860 5862 5864 5866 5868 5870 5872 5874 5876 5878 5880 5882 5884 5885 5887 5888 5890 5891 5892 5893 5894 5895 5896 5898 5898 5899 5900 5901 5901 5901 5902 5903 5903 5904 5904 5904 5904 5904 5903 5903 5903 5904 5904 5904 5903 5903 5903 5902 5902 5901 5900 5899 5899 5898 5897 5896 5894 5891 5890 5890 5889 5887 5886 5884 5883 5882 5880 5878 5876 5875 5873 5871 5869 5867
5834 5835 5836 5837 5839 5841 5842 5844 5846 5847 5849 5851 5853 5855 5858 5860 5862 5864 5866 5868 5870 5872 5874 5876 5878 5880 5882 5884 5885 5887 5888 5889 5890 5892 5892 5893 5894 5895 5896 5897 5898 5898 5899 5899 5900 5900 5901 5901 5902 5902 5902 5902 5901 5901 5900 5901 5901 5901 5900 5900 5900 5899 5899 5898 5897 5896 5895 5894 5894 5893 5891 5888 5887 5886 5885 5883 5882 5881 5879 5878 5876 5874 5872 5871 5868 5866 5864 5862
5832 5833 5834 5835 5837 5839 5841 5842 5844 5846 5847 5849 5851 5853 5856 5858 5860 5862 5864 5866 5868 5870 5872 5874 5876 5878 5880 5882 5883 5885 5886 5888 5889 5890 5890 5891 5892 5893 5894 5894 5895 5895 5896 5896 5897 5898 5898 5898 5898 5899 5899 5899 5898 5898 5898 5898 5898 5897 5897 5897 5896 5896 5895 5895 5894 5892 5891 5891 5890 5889 5887 5885 5883 5882 5881 5880 5878 5877 5875 5874 5872 5870 5869 5867 5864 5862 5859 5857
5830 5831 5832 5833 5834 5836 5838 5840 5842 5843 5845 5847 5849 5852 5854 5856 5858 5860 5862 5864 5866 5868 5870 5872 5874 5876 5878 5879 5881 5882 5884 5885 5886 5887 5888 5889 5890 5890 5891 5891 5892 5892 5893 5893 5894 5895 5895 5895 5895 5895 5895 5895 5895 5895 5895 5895 5894 5894 5893 5893 5892 5892 5892 5891 5890 5889 5888 5887 5886 5884 5883 5882 5879 5878 5877 5876 5874 5873 5871 5870 5868 5866 5864 5862 5860 5857 5855 5852
5828 5829 5830 5831 5832 5834 5836 5838 5839 5841 5843 5845 5847 5849 5851 5853 5856 5858 5860 5862 5864 5866 5868 5870 5872 5874 5875 5877 5878 5880 5881 5882 5883 5884 5885 5886 5886 5887 5887 5888 5888 5888 5889 5890 5890 5891 5891 5891 5891 5891 5891 5891 5891 5891 5891 5891 5891 5890 5889 5889 5888 5888 5888 5887 5886 5885 5884 5883 5882 5880 5879 5878 5875 5874 5873 5872 5870 5868 5867 5865 5864 5862 5860 5858 5856 5853 5851 5848
5825 5826 5828 5829 5830 5831 5833 5835 5837 5839 5841 5843 5845 5847 5849 5851 5853 5855 5857 5860 5862 5863 5866 5868 5869 5871 5873 5875 5876 5877 5878 5880 5881 5881 5882 5883 5883 5884 5884 5884 5884 5885 5886 5886 5886 5887 5887 5886 5887 5888 5887 5887 5888 5888 5887 5887 5887 5886 5886 5885 5885 5884 5883 5883 5882 5881 5880 5879 5878 5876 5875 5874 5872 5870 5868 5867 5866 5864 5862 5861 5860 5858 5856 5854 5852 5849 5846 5844
5823 5824 5825 5826 5827 5829 5830 5832 5834 5836 5838 5840 5842 5844 5846 5848 5850 5852 5855 5857 5859 5861 5863 5865 5867 5868 5870 5872 5873 5875 5875 5876 5878 5878 5879 5880 5880 5880 5880 5880 5881 5882 5882 5882 5883 5884 5884 5883 5883 5884 5883 5884 5884 5884 5884 5884 5883 5883 5882 5882 5881 5881 5880 5879 5878 5877 5876 5875 5874 5873 5871 5869 5868 5866 5864 5863 5862 5860 5859 5857 5856 5854 5852 5850 5847 5845 5842 5839
5820 5821 5823 5824 5825 5826 5828 5829 5831 5833 5835 5837 5839 5841 5843 5845 5847 5850 5852 5854 5856 5858 5860 5862 5864 5865 5867 5869 5870 5871 5872 5873 5875 5875 5876 5876 5876 5876 5877 5877 5878 5879 5879 5879 5879 5880 5880 5879 5880 5880 5880 5880 5881 5881 5880 5880 5880 5879 5879 5878 5878 5877 5876 5875 5875 5874 5873 5871 5870 5869 5867 5865 5864 5862 5860 5859 5857 5856 5855 5853 5852 5850 5847 5845 5842 5840 5837 5834
5818 5819 5820 5821 5822 5824 5825 5826 5828 5830 5832 5834 5836 5838 5840 5842 5844 5847 5849 5851 5853 5855 5857 5859 5860 5861 5863 5865 5866 5867 5869 5870 5871 5872 5872 5872 5872 5873 5874 5874 5875 5875 5876 5876 5876 5876 5876 5876 5876 5877 5877 5876 5877 5877 5877 5876 5876 5875 5875 5875 5874 5873 5873 5872 5871 5870 5869 5868 5866 5865 5863 5862 5860 5858 5857 5855 5853 5852 5850 5849 5848 5846 5843 5840 5837 5834 5832 5830